Wind_Speed
43 44 44 43 43 43 42 42 42 41 41 40 40 39 39 38 38 37 36 36 35 34 33 33 34 36 39 42 43 43 42 41 40 38 36 37 38 38 38 37 35 34 33 33 32 31 31 31 31 31 31 31 30 30 29 28 26 24 23 21 21 23 25 25 25 25 25 25 25 25 25 25 24 23 21 20 21 22 23 24 25 24 23 22 22 22 22 22
45 45 45 45 45 45 44 44 44 43 43 42 42 41 41 41 40 40 39 38 38 36 35 34 34 35 37 39 42 43 43 42 40 37 37 39 39 39 39 37 35 34 34 34 33 33 32 32 32 31 32 31 30 30 29 28 26 24 23 22 23 25 26 27 26 26 26 25 25 25 25 24 24 23 21 21 22 22 23 26 26 24 22 20 20 21 20 21
46 46 46 46 46 46 46 46 45 45 45 44 44 43 43 43 42 42 41 41 40 39 37 36 35 35 36 37 39 42 43 44 41 37 38 39 39 40 38 36 36 35 35 35 34 33 33 32 32 32 32 31 31 30 30 28 26 24 23 23 25 27 28 28 27 27 26 26 27 26 26 25 24 23 22 21 22 22 24 27 26 23 21 20 20 20 19 20
48 48 48 47 47 47 47 47 47 47 47 46 46 45 45 45 44 44 43 43 42 41 39 38 38 37 37 36 37 40 42 44 41 37 39 40 40 40 37 36 37 36 36 35 34 34 34 33 32 32 32 31 31 30 29 27 26 24 24 25 28 30 30 29 28 28 27 28 28 27 26 26 24 23 22 22 22 23 24 26 26 23 21 20 20 19 19 20
48 48 48 48 48 48 48 48 48 48 48 48 48 47 47 47 46 46 45 44 43 42 41 40 40 39 38 37 37 38 40 42 41 38 40 41 41 40 38 37 37 37 37 36 35 34 34 34 33 32 32 31 31 30 29 27 26 25 25 28 30 31 30 29 28 29 28 28 28 27 26 25 24 23 22 21 22 23 24 26 25 23 21 21 20 19 20 20
48 49 48 49 49 49 49 49 49 49 49 49 49 49 48 48 48 48 47 46 44 43 42 42 41 41 40 39 38 38 39 41 40 39 40 41 42 41 39 38 38 38 37 36 35 35 35 34 33 32 32 32 31 30 29 28 27 26 28 31 31 30 30 29 29 29 29 28 28 27 26 24 23 22 21 21 21 22 23 24 24 22 21 21 20 20 20 20
49 49 49 49 49 50 50 50 50 50 50 50 50 50 50 50 49 49 48 47 46 44 44 43 43 42 41 40 39 39 39 39 39 40 42 43 43 41 39 39 39 38 37 37 36 35 36 35 34 33 32 32 31 31 30 29 28 28 30 32 31 30 30 30 30 30 29 28 28 26 25 23 22 21 20 19 19 20 21 21 21 21 22 21 20 20 21 20
50 50 50 50 50 51 51 51 51 51 51 51 50 50 50 51 50 50 49 48 47 46 45 44 43 43 42 42 41 40 38 37 40 43 43 42 42 41 40 40 39 39 38 38 37 37 36 36 35 34 33 33 32 32 32 31 30 29 31 32 31 30 31 31 30 29 29 28 27 25 24 23 22 21 20 18 18 19 20 20 20 22 23 21 20 21 21 21
49 50 51 51 51 51 51 51 52 51 51 51 51 51 51 51 51 51 50 49 48 47 46 45 44 44 43 43 42 41 38 38 42 43 41 41 42 42 41 41 40 39 39 39 38 38 37 36 35 34 34 33 33 33 34 33 31 30 32 33 32 31 31 30 29 29 29 27 26 24 23 23 21 20 20 19 19 21 21 22 22 23 24 21 20 20 21 21
48 49 49 50 50 51 51 52 52 52 52 51 51 51 51 52 52 51 50 50 49 47 46 46 46 45 44 43 42 40 38 40 43 43 41 43 43 42 42 42 41 40 40 39 38 38 38 36 36 35 35 35 35 35 36 34 31 32 34 34 32 31 30 29 29 29 28 27 25 24 23 23 21 21 22 21 21 22 23 24 24 24 24 21 19 20 20 21
47 47 48 48 49 49 50 51 51 52 51 51 51 52 52 52 52 51 50 50 49 48 47 47 47 46 44 44 42 39 39 41 43 43 43 44 44 42 43 43 42 41 40 39 39 39 39 38 37 36 37 37 36 36 36 34 32 34 35 33 31 30 30 29 29 28 27 27 26 25 23 22 22 23 23 22 22 23 23 24 24 24 23 20 19 20 20 20
46 47 47 47 48 48 49 50 50 51 51 51 51 52 52 52 52 51 50 50 49 49 48 48 48 47 45 44 41 39 41 43 44 44 44 44 44 42 42 42 42 41 40 40 40 40 40 39 38 38 38 37 36 37 37 35 34 35 34 32 31 31 30 29 29 28 28 28 26 24 22 22 23 24 23 23 24 22 22 23 22 22 21 19 19 20 19 18
45 46 46 47 47 48 48 48 49 49 50 50 51 51 51 51 51 51 51 50 50 50 49 49 48 47 47 43 40 41 43 43 44 44 43 44 43 41 41 41 41 41 40 39 40 40 40 40 39 39 38 37 38 39 38 35 34 35 33 32 32 32 31 29 29 28 28 27 24 21 22 24 25 24 23 25 24 22 21 20 19 18 18 18 20 19 18 18
44 45 45 46 46 47 47 47 47 48 48 49 50 50 51 51 51 51 51 51 50 50 50 50 49 48 47 42 39 42 43 43 44 43 43 44 43 42 42 42 42 42 41 40 40 40 40 40 40 40 39 39 39 39 37 34 34 34 33 33 32 31 30 29 29 28 27 24 22 20 22 25 25 24 25 25 23 20 19 17 16 16 16 18 19 19 19 19
43 43 44 44 45 45 46 46 46 47 48 48 49 50 50 51 51 51 51 51 51 50 50 49 48 47 45 40 40 43 43 41 42 43 44 45 45 44 43 43 44 44 43 42 41 41 40 40 40 40 40 40 39 38 36 34 34 34 34 34 32 31 30 30 29 27 25 24 22 21 22 25 26 26 26 24 22 20 17 16 16 16 17 18 19 19 19 20
41 42 42 43 43 44 45 45 46 47 48 49 49 50 50 51 51 51 51 51 50 50 49 48 47 46 43 40 40 43 43 40 41 45 46 46 47 46 45 45 45 45 44 44 43 41 41 40 40 40 40 40 39 38 36 34 34 35 34 34 32 31 30 30 28 27 26 25 23 21 22 26 28 27 24 23 22 19 18 18 17 17 18 18 19 19 19 20
41 41 42 43 44 45 45 46 47 48 49 50 51 51 51 51 51 51 51 50 49 48 47 46 45 44 42 39 40 42 42 41 43 47 47 47 48 48 47 46 46 45 44 45 44 42 41 41 40 40 40 39 38 37 36 34 35 35 34 33 32 31 29 29 29 29 28 26 24 23 24 28 28 25 23 22 22 20 19 19 19 18 18 19 19 19 19 20
41 42 43 44 45 46 47 48 48 49 50 50 51 51 50 50 50 49 49 48 47 46 45 44 42 42 40 38 40 43 43 42 45 47 48 48 49 49 49 48 47 47 45 45 44 44 43 41 41 40 39 37 37 36 35 34 34 34 33 32 31 29 28 30 32 31 28 26 26 26 28 29 27 23 22 23 22 20 20 20 20 18 17 17 18 18 19 19
42 43 44 45 45 46 47 47 47 47 48 48 49 48 48 47 47 47 46 46 45 43 41 40 39 38 37 37 41 43 42 43 45 47 48 47 48 49 49 49 48 47 46 45 45 44 44 42 41 39 37 36 36 35 34 33 32 32 32 30 30 30 31 33 33 31 30 28 27 26 28 28 25 24 24 23 22 21 21 21 21 20 18 16 17 17 18 18
42 42 43 43 43 44 44 44 44 44 44 45 45 45 45 45 45 45 44 42 39 38 38 38 37 37 37 39 41 42 41 42 45 47 46 46 47 47 48 49 48 47 47 46 44 44 43 42 39 37 35 35 35 35 35 32 31 32 31 31 31 31 33 35 34 32 31 29 27 26 27 27 26 25 23 22 22 23 23 23 22 21 19 18 18 18 18 16
40 40 41 41 41 41 41 40 40 40 41 41 41 41 42 42 41 40 39 36 34 35 35 35 35 36 37 39 40 40 41 41 43 45 45 45 46 46 48 49 49 47 47 47 45 44 43 41 37 36 37 37 35 35 34 31 31 32 33 34 33 30 31 34 35 34 32 29 27 27 27 27 25 23 23 23 25 25 25 24 23 21 20 18 17 17 16 13
38 38 38 38 38 37 37 37 37 37 37 37 38 39 39 38 36 34 33 31 32 33 33 33 34 34 36 38 38 39 39 39 41 42 43 44 44 45 46 48 49 48 47 47 46 44 42 39 37 37 38 37 35 34 33 31 33 34 36 36 32 28 29 32 34 35 31 27 27 27 27 27 26 24 25 26 26 26 25 23 22 21 19 18 16 15 14 11
35 35 35 35 34 34 33 33 34 34 34 35 37 37 35 33 31 30 30 29 30 32 32 32 33 34 36 37 37 38 37 36 38 40 42 42 41 42 44 46 48 49 48 47 46 44 41 39 39 38 37 36 35 34 33 33 36 37 38 35 30 29 30 32 35 34 29 28 29 29 28 29 28 27 27 27 27 25 24 24 23 20 19 17 15 14 12 12
33 32 32 31 31 31 31 31 32 32 33 35 34 33 31 29 29 29 28 29 30 31 32 33 34 35 36 37 38 38 36 35 36 38 40 40 40 40 42 43 46 48 48 47 46 44 42 41 40 37 35 35 34 33 34 37 39 40 39 34 30 31 34 35 36 33 30 30 31 30 30 30 30 29 28 28 26 25 24 22 21 20 19 17 17 15 14 14
30 29 29 28 28 29 30 30 30 31 33 33 32 30 29 27 28 28 29 29 30 31 32 33 34 34 36 38 38 36 34 34 34 35 37 37 37 39 40 42 44 47 48 47 46 45 44 40 37 35 34 35 35 35 37 40 41 41 39 34 32 35 37 37 36 33 32 33 32 32 31 32 31 29 29 28 26 25 23 21 19 18 18 17 17 16 15 14
27 26 26 26 27 28 29 29 30 31 31 30 29 28 27 27 28 29 29 31 31 31 31 32 32 32 35 36 34 33 33 33 33 34 36 35 36 38 38 39 42 44 46 46 45 44 41 37 35 34 35 37 37 37 39 42 42 42 39 34 35 39 40 39 36 34 35 35 33 33 33 32 32 30 29 28 26 25 23 21 20 18 16 15 14 14 14 14
24 24 24 25 26 28 28 28 29 29 28 27 26 26 26 26 28 29 30 32 31 31 30 30 30 31 33 32 31 32 33 33 34 36 36 35 37 39 38 38 40 42 45 45 43 42 38 35 35 36 37 39 39 40 41 42 42 41 37 35 37 41 41 40 37 35 35 35 34 35 34 33 31 31 30 28 26 25 24 23 21 18 15 14 13 13 13 12
22 22 23 25 26 27 27 27 28 27 26 26 26 27 27 27 29 30 31 31 29 29 30 29 29 30 31 32 31 30 29 31 35 37 36 34 37 40 40 39 38 38 41 42 40 38 34 33 35 37 39 40 40 40 40 41 40 37 35 36 39 41 42 40 38 35 35 35 36 36 36 34 33 33 31 28 27 26 25 23 19 16 15 14 14 13 12 12
21 21 23 25 25 25 26 27 26 26 26 26 27 29 30 31 32 31 31 29 26 28 30 29 29 30 31 31 30 29 29 31 33 33 34 35 37 39 38 36 36 37 39 38 34 31 30 33 36 38 39 38 38 38 39 39 37 34 36 39 41 42 42 40 38 37 36 36 37 37 37 36 35 34 30 26 27 27 24 19 16 15 16 15 15 14 14 14
20 21 23 24 24 25 26 26 26 26 27 27 28 30 31 30 29 28 29 28 25 26 29 29 29 30 31 29 27 29 31 32 31 29 31 34 35 37 36 34 35 38 40 37 31 29 31 35 38 39 39 37 36 36 37 37 33 34 38 41 43 43 41 40 38 38 38 38 38 38 38 37 34 33 30 26 26 27 22 18 16 15 15 17 17 17 17 17
20 22 23 24 25 26 26 27 27 27 27 28 29 30 29 27 27 28 27 26 25 25 26 29 30 29 28 26 25 30 33 32 30 30 31 33 34 36 37 37 38 40 40 35 32 33 36 38 39 39 38 37 37 38 39 38 36 37 41 43 44 43 42 41 40 40 40 39 38 38 38 36 34 32 29 25 25 25 21 19 17 16 17 19 20 20 20 19
21 22 24 24 25 26 27 27 27 27 27 28 29 29 28 28 29 29 25 25 26 24 25 29 29 26 25 23 23 28 32 32 31 31 32 33 34 36 38 39 40 41 39 34 34 36 38 38 38 38 37 37 39 41 41 41 41 42 44 45 46 45 44 43 42 41 40 38 38 38 37 35 34 32 29 26 25 23 20 19 17 17 18 19 20 22 22 21
23 24 25 25 25 26 27 27 27 26 27 28 29 29 30 30 30 28 26 27 26 22 24 27 25 24 25 23 24 26 28 29 30 31 31 32 33 34 37 38 38 38 35 33 35 38 38 38 37 35 35 36 39 42 42 43 44 46 47 47 46 45 45 44 44 42 40 38 38 37 36 35 34 32 30 27 26 24 21 19 18 18 18 18 20 22 22 20
23 25 25 25 26 26 26 26 26 27 28 29 30 30 31 29 28 28 28 29 27 21 24 28 27 27 26 22 24 28 29 29 28 29 30 32 34 33 35 37 37 36 33 31 34 36 36 36 35 33 33 35 38 40 41 42 44 46 46 44 43 43 44 44 43 41 39 37 36 35 36 36 34 32 31 29 27 24 21 19 19 19 20 20 21 21 20 18
24 26 26 26 26 25 24 26 26 27 29 31 32 32 30 28 28 31 29 29 28 23 24 29 29 30 28 25 26 28 29 29 28 28 28 30 32 32 33 34 34 33 32 34 35 36 36 35 34 32 32 33 35 37 39 40 42 43 43 42 43 44 45 44 42 40 38 37 37 36 36 36 34 33 32 30 27 24 22 21 21 21 21 21 21 21 20 18
24 26 26 26 24 23 24 26 26 29 30 32 33 31 29 28 30 32 29 29 29 24 25 30 30 30 30 29 31 30 29 28 27 28 28 27 28 29 30 30 29 28 30 34 36 36 36 34 33 32 31 33 34 35 36 36 37 38 39 41 42 44 45 44 42 40 39 39 38 38 38 37 35 33 32 30 27 25 24 24 24 23 21 19 17 18 19 18
24 25 25 25 23 23 26 27 28 31 32 33 33 30 30 31 31 31 27 29 30 25 27 31 30 30 31 31 33 33 32 30 28 26 25 26 28 28 29 29 27 26 28 32 34 33 33 32 31 32 32 33 34 35 34 33 32 34 36 38 41 43 45 45 43 42 41 41 40 39 39 38 36 34 32 30 29 27 26 26 25 23 22 19 17 17 17 17
24 25 25 25 24 26 29 29 30 32 33 33 31 30 33 33 31 29 25 29 30 24 27 34 32 30 30 30 31 32 32 31 29 26 24 25 27 28 29 28 28 29 29 31 32 32 31 30 31 32 33 34 35 35 34 33 32 33 34 36 40 43 43 44 44 43 42 42 42 40 39 38 36 34 33 32 31 30 29 28 26 23 23 22 21 19 18 18
24 25 25 25 26 28 30 31 32 33 32 30 30 33 34 31 30 28 24 28 29 23 27 34 32 30 30 28 29 29 30 29 27 28 26 26 26 27 27 27 28 30 31 31 31 31 31 31 31 32 33 35 35 34 34 34 34 36 36 37 40 41 40 41 42 42 42 43 43 42 40 38 36 35 35 34 33 32 30 28 26 23 22 23 22 22 21 19
24 25 26 26 27 30 32 32 33 32 29 30 32 35 34 29 28 26 23 27 28 23 28 33 32 31 30 28 27 27 28 27 25 26 26 26 26 26 27 27 27 30 33 33 33 31 31 31 32 32 34 35 35 34 33 33 34 35 36 37 38 37 37 37 38 39 41 42 42 42 41 39 38 37 37 36 35 33 31 28 26 24 23 23 23 22 21 19
24 26 27 27 29 32 33 32 31 30 30 33 34 36 34 30 29 25 23 27 26 23 29 33 31 30 29 27 28 26 26 27 27 27 26 26 27 26 27 27 27 30 33 34 34 33 32 32 33 33 34 35 36 34 33 33 32 32 33 33 33 33 34 34 35 36 38 39 40 40 40 39 39 39 39 38 36 33 30 27 25 23 23 23 22 20 19 18
25 27 28 29 32 34 33 31 30 30 33 35 35 36 35 33 32 26 22 26 24 21 29 33 31 30 28 27 27 26 27 28 29 28 26 26 26 25 26 26 27 29 32 34 35 34 34 34 34 35 35 35 35 34 32 32 31 31 31 30 30 31 32 32 32 33 34 35 37 39 39 38 38 38 37 36 34 32 29 26 23 22 22 21 19 17 16 16
26 29 30 31 33 34 32 30 31 33 36 36 36 36 35 34 34 26 21 25 24 22 29 32 31 30 29 28 27 26 27 28 28 28 27 26 26 24 25 26 27 29 32 34 35 36 36 36 36 36 35 35 35 34 32 31 31 30 30 29 29 29 29 28 29 30 31 32 33 35 36 36 35 35 35 33 33 31 28 25 22 21 21 19 17 15 15 15
28 30 31 32 33 32 31 31 32 35 38 37 35 36 36 36 34 27 23 25 25 25 30 31 31 31 29 28 27 27 28 28 28 28 28 27 26 25 25 26 28 30 31 33 34 36 38 39 39 39 38 37 36 35 34 33 32 31 30 29 28 28 28 28 28 29 30 30 30 30 32 32 31 32 31 30 29 27 24 22 21 20 19 16 15 15 14 15
29 30 30 31 32 31 31 32 33 36 39 37 34 35 36 37 34 28 25 26 26 26 30 30 30 30 29 28 29 29 29 28 28 28 28 28 27 26 25 26 28 29 30 32 32 34 37 39 40 41 40 39 38 37 36 35 34 33 32 30 29 30 30 29 29 30 30 30 30 30 30 30 29 29 28 27 25 23 21 20 20 18 16 15 14 15 14 14
30 31 29 29 29 29 31 33 35 37 38 37 34 34 36 37 35 30 27 28 28 28 30 30 28 29 29 28 29 30 30 28 28 27 28 29 28 27 25 25 26 27 29 31 32 33 35 37 39 40 39 39 38 37 36 35 34 33 32 31 31 32 32 32 32 31 31 31 31 31 31 29 27 28 27 25 24 22 21 20 19 17 16 15 15 16 15 15
31 30 28 27 27 28 30 33 34 34 36 36 34 34 36 37 36 32 28 28 29 29 30 30 28 28 29 29 29 31 31 29 29 28 27 28 28 27 26 25 25 26 27 29 30 31 33 36 38 39 38 36 36 35 34 34 33 33 32 32 32 32 33 33 33 32 31 32 32 32 31 28 25 25 25 23 23 22 20 20 20 18 17 16 16 16 16 16
31 28 26 26 27 29 30 32 33 33 33 34 34 34 36 37 37 34 30 30 30 30 31 30 28 28 30 30 30 30 30 29 29 29 28 27 27 27 27 26 25 25 26 27 28 30 32 34 36 37 36 35 34 34 34 33 33 33 32 31 29 29 28 28 29 30 31 33 32 31 30 27 23 23 23 22 22 21 19 19 19 18 18 17 17 17 16 17
29 26 23 24 26 30 31 32 33 33 33 33 33 35 36 37 38 37 34 31 30 31 32 32 30 29 28 29 30 29 29 28 27 28 27 26 25 24 24 24 24 23 23 24 26 28 30 33 34 36 36 35 34 34 33 33 33 33 32 30 28 25 24 24 24 26 28 30 31 30 29 26 24 23 23 23 22 19 18 18 18 19 20 19 18 18 18 18
26 21 20 22 26 31 32 33 34 35 35 35 34 33 34 36 37 38 35 30 28 30 34 34 32 29 26 26 27 27 27 27 27 26 26 24 23 22 21 22 22 21 20 21 22 24 27 30 32 34 35 35 35 33 33 33 33 33 32 31 28 26 25 24 24 24 25 27 29 29 29 27 26 25 24 24 22 19 19 19 19 20 19 17 16 17 18 20
24 19 20 22 26 32 34 34 35 35 36 35 31 29 30 32 34 35 34 29 25 28 32 33 31 29 26 24 25 25 25 27 27 25 24 23 22 21 20 20 20 19 19 19 20 21 23 26 29 30 33 35 35 34 33 32 31 32 32 32 30 28 28 28 28 27 25 25 26 27 28 27 27 26 26 25 23 22 21 21 20 19 17 15 14 14 15 17
22 20 21 21 26 32 34 33 34 34 35 35 30 26 27 27 29 31 32 30 27 26 29 30 28 27 25 23 23 23 24 26 26 25 23 22 21 20 20 20 20 19 19 20 20 20 22 24 26 28 30 33 35 35 34 33 32 32 32 32 31 30 29 29 30 29 28 26 25 25 26 27 28 28 27 26 25 24 23 22 20 18 16 15 15 13 11 13
Wind_Direction
255 255 255 255 255 255 255 256 257 258 258 259 259 260 260 260 260 260 260 259 258 257 256 254 252 249 247 246 245 245 245 245 244 243 244 244 244 244 245 245 245 245 244 242 241 239 237 234 231 228 225 223 220 219 219 219 219 219 220 219 220 225 229 233 235 237 240 241 243 244 246 248 250 250 251 254 255 258 261 263 263 262 261 259 258 259 261 264
255 255 255 255 255 255 255 255 255 256 257 257 258 258 259 259 259 259 259 259 259 258 258 257 255 252 250 247 245 244 243 243 243 242 243 243 243 243 244 245 245 244 243 241 239 237 236 233 230 226 223 221 219 219 218 218 218 218 218 216 218 224 228 230 233 236 238 241 243 244 246 248 250 251 252 253 256 258 261 262 261 260 258 253 252 255 259 265
255 256 255 255 254 254 254 254 255 255 256 256 257 257 257 258 258 258 258 258 258 259 259 258 257 255 252 249 246 244 242 241 241 241 242 243 243 243 243 244 243 242 241 240 239 237 236 233 229 225 222 220 219 219 219 218 216 215 215 214 217 224 227 228 230 233 236 239 242 243 245 247 249 251 253 254 256 258 259 260 259 257 254 250 251 255 260 264
255 255 255 255 254 254 254 254 254 254 255 255 256 256 257 257 257 257 258 258 258 259 259 259 257 256 254 252 249 245 242 240 239 241 242 242 242 242 241 241 241 240 240 239 238 236 235 232 228 225 222 221 220 220 220 218 216 214 212 213 219 224 226 227 230 232 234 236 239 242 245 246 249 252 254 255 257 258 259 260 260 257 253 250 253 256 258 260
254 254 254 254 254 254 254 254 254 254 254 255 255 256 256 256 257 257 257 257 258 258 258 259 258 256 255 253 251 247 244 241 238 239 240 241 241 241 240 240 240 239 239 238 236 234 234 231 227 224 221 221 221 221 221 218 216 213 209 215 221 224 226 228 230 232 234 236 239 242 244 247 250 252 254 256 258 260 261 263 264 261 256 255 257 258 257 259
255 254 254 253 254 254 254 254 254 254 254 254 255 255 255 256 256 256 257 257 257 258 258 258 257 257 256 254 252 249 246 242 239 237 238 240 240 240 239 239 239 239 239 237 235 233 233 231 227 224 221 221 220 220 221 218 215 211 210 217 222 224 226 228 230 233 235 237 240 243 246 248 250 251 254 257 260 264 266 268 269 267 262 259 260 258 258 260
257 256 255 255 254 254 254 254 254 254 254 254 254 255 255 255 256 256 257 257 258 258 258 257 256 256 256 255 253 250 247 243 240 236 235 237 238 238 237 237 238 238 237 236 234 232 231 230 227 224 221 220 218 218 219 217 214 211 212 218 221 223 226 228 231 233 236 238 240 244 248 249 251 253 254 257 263 268 269 268 267 264 261 259 259 258 258 259
258 258 257 257 256 256 255 255 254 254 254 254 254 255 255 255 255 256 256 257 258 258 258 257 257 256 255 255 253 251 247 243 240 236 234 237 238 238 236 235 236 236 235 234 232 230 229 228 226 223 221 219 218 217 216 214 212 211 214 218 221 222 225 228 231 234 237 239 242 244 248 250 252 254 255 258 264 264 261 260 258 256 255 256 257 259 259 259
259 258 258 258 257 257 257 256 256 255 255 255 255 255 255 255 255 255 256 257 257 258 258 258 257 257 256 254 253 252 246 242 241 237 233 236 238 237 236 234 234 234 234 233 232 230 229 228 226 223 220 219 217 216 214 213 210 209 213 218 221 222 224 229 232 235 238 241 243 244 246 248 250 253 256 258 256 252 251 252 251 250 251 252 255 258 259 259
259 258 258 258 258 257 257 256 256 256 256 255 255 255 255 255 255 256 256 257 258 258 259 259 258 258 257 255 253 251 246 242 241 237 232 233 236 236 235 234 233 232 232 233 232 230 228 226 225 222 220 218 216 215 215 212 207 207 213 218 220 223 226 229 232 234 238 240 242 242 243 245 248 253 255 251 246 246 248 250 250 250 251 252 255 257 257 257
259 259 258 257 257 257 256 256 256 256 256 255 255 255 255 255 255 256 257 257 258 258 259 259 259 259 257 256 254 249 244 242 240 236 231 231 234 235 234 233 232 231 231 231 230 228 227 225 223 221 220 218 215 216 215 212 206 208 214 218 219 222 225 228 231 234 236 238 238 239 242 245 248 251 250 246 242 244 247 249 251 252 255 257 257 255 255 257
259 259 258 257 257 256 256 256 255 255 255 255 255 255 255 255 255 256 256 257 257 258 258 259 259 259 257 256 253 246 242 241 239 236 231 230 233 234 234 233 232 231 231 230 230 228 227 225 223 221 220 218 216 216 215 211 208 210 215 218 219 222 224 227 230 232 234 235 236 237 241 244 246 247 245 243 243 245 249 251 253 254 256 255 252 251 253 257
259 258 258 257 257 256 256 255 255 255 255 255 255 255 255 255 255 255 256 256 257 257 258 258 258 258 257 255 248 244 242 239 237 235 231 230 232 233 233 232 231 230 229 229 230 229 228 226 224 222 220 218 216 217 216 211 209 211 214 216 219 222 224 226 229 231 233 234 235 236 239 243 244 242 239 241 244 245 247 251 252 252 249 246 247 249 251 253
259 258 257 257 257 256 256 255 255 254 254 254 254 254 254 254 255 255 255 256 256 257 256 257 257 256 256 251 243 243 242 236 234 233 231 230 230 231 231 230 229 227 226 226 226 227 227 227 225 223 221 219 218 218 216 212 211 213 215 216 218 222 224 227 228 230 232 231 231 230 237 243 242 237 238 242 245 244 243 245 245 242 240 240 245 248 248 250
259 258 257 257 256 256 256 255 255 254 254 253 253 253 253 254 254 254 254 255 255 255 255 255 255 254 252 245 239 242 240 233 232 231 229 228 228 229 228 227 227 226 224 223 223 224 225 225 225 224 222 220 219 219 216 212 212 214 217 217 218 220 222 225 228 228 228 227 225 226 235 242 239 235 238 244 245 241 237 236 235 235 235 237 242 244 247 250
259 259 258 257 256 256 255 255 255 254 254 254 254 253 253 253 253 253 253 254 253 253 253 252 251 250 247 240 237 239 236 231 229 228 227 227 227 226 226 225 225 225 223 222 221 222 223 223 224 224 223 221 220 219 216 213 212 214 218 218 218 219 220 224 226 225 224 222 220 222 232 238 236 236 240 243 242 236 231 229 229 230 231 233 236 239 243 248
260 260 259 258 257 257 256 255 255 255 255 254 254 253 253 252 252 252 252 251 250 249 249 247 246 245 242 237 235 235 232 228 227 226 226 226 226 225 224 224 223 223 223 221 220 220 221 221 222 223 222 221 220 219 217 214 213 215 216 217 218 217 217 221 223 222 222 220 218 220 226 233 235 236 239 239 238 233 228 226 225 225 225 228 231 235 239 246
262 262 261 260 259 258 256 256 255 254 254 254 253 253 252 251 250 250 249 248 247 246 245 243 241 241 238 234 232 231 229 226 225 225 225 226 226 224 223 223 222 222 222 221 219 218 219 220 221 221 221 220 220 219 217 214 213 215 214 214 215 214 215 219 222 222 219 217 219 220 223 229 233 232 231 232 232 229 225 223 222 219 219 225 231 236 240 246
264 263 262 261 259 258 257 256 254 253 252 251 251 250 249 248 248 247 246 245 244 242 240 238 236 235 233 230 229 229 228 226 225 225 225 226 226 225 224 223 222 221 221 220 218 217 218 218 219 220 220 219 220 219 217 214 212 212 212 210 211 211 214 220 223 222 219 218 221 222 225 229 230 227 224 226 227 227 225 224 221 216 215 223 230 236 241 246
265 264 262 260 259 257 256 254 253 251 249 248 247 246 245 245 245 244 243 241 238 235 234 232 230 229 227 226 226 226 226 225 225 225 224 225 226 226 225 224 222 221 221 220 218 217 218 217 217 219 219 218 218 219 216 212 209 209 207 205 206 209 216 221 224 223 221 221 223 224 225 226 224 223 223 224 226 226 226 225 223 220 219 226 232 237 243 248
265 264 262 260 258 256 254 252 249 247 245 244 243 242 243 242 240 240 239 235 231 230 229 228 226 225 226 226 226 225 224 225 225 225 224 224 225 225 225 223 222 221 220 220 218 216 217 216 215 216 218 216 216 218 215 209 207 205 202 201 202 208 217 221 223 224 224 224 224 221 219 220 220 221 224 225 227 228 227 226 226 226 227 232 238 244 248 253
265 263 261 259 257 254 250 247 244 241 239 239 239 240 239 237 234 235 233 228 227 226 224 224 223 222 224 225 225 225 224 225 225 225 224 224 224 225 224 223 222 221 220 219 217 215 215 214 215 216 217 215 213 214 210 204 202 201 199 199 199 205 214 218 221 224 223 219 214 209 208 215 218 218 223 227 228 228 228 228 230 232 234 236 241 246 249 252
264 262 260 257 254 250 245 240 237 235 234 234 235 235 233 229 228 228 226 222 221 221 220 220 220 220 222 223 222 223 222 222 224 224 224 223 223 223 223 223 222 221 220 219 217 215 214 213 214 216 216 215 213 210 205 200 200 200 198 197 197 202 207 212 218 220 215 205 199 199 205 214 216 217 223 227 229 230 230 231 234 235 236 236 239 243 245 247
263 261 257 253 249 243 237 233 231 228 228 230 230 228 226 223 222 222 221 217 215 216 215 216 217 217 219 218 218 218 217 218 220 222 223 222 221 220 220 222 222 221 219 217 216 215 214 213 214 214 213 213 211 207 201 198 200 201 198 195 193 196 201 208 214 211 201 194 195 200 207 214 217 219 222 226 230 233 233 234 235 236 237 236 238 243 244 247
262 258 253 248 242 235 231 227 225 223 224 225 224 222 220 219 218 218 218 214 212 212 212 214 215 215 217 217 217 216 216 217 218 219 221 220 218 217 218 220 222 222 219 216 214 213 213 213 213 212 208 208 208 204 200 199 200 201 197 191 188 193 199 205 210 204 191 188 196 202 207 214 219 221 224 228 231 233 235 238 238 240 241 241 245 250 253 256
257 252 246 240 233 228 225 221 219 219 220 220 220 219 218 217 217 216 216 214 211 210 211 212 211 213 218 219 218 218 218 218 217 218 219 216 214 213 214 217 220 221 219 215 212 211 212 212 211 209 205 205 204 201 200 200 201 202 196 188 188 193 199 203 207 202 190 187 196 204 209 217 223 223 226 232 234 234 236 239 241 244 245 246 251 258 262 265
251 245 238 230 224 221 218 215 214 215 216 217 217 216 213 213 215 215 216 215 211 209 211 210 209 212 218 218 217 219 219 217 217 217 215 213 212 210 210 213 216 219 218 213 209 208 209 208 206 205 204 203 201 200 200 200 202 202 194 187 190 195 199 203 205 203 195 192 199 205 210 218 225 228 231 237 239 237 235 235 240 246 248 249 254 262 267 268
242 236 227 220 216 214 211 210 211 212 212 212 213 213 211 211 215 215 216 215 209 208 209 209 210 212 216 217 215 216 216 216 217 214 209 209 211 210 208 208 210 214 216 213 207 205 205 204 202 202 203 202 201 199 199 200 201 198 190 189 193 196 200 203 204 203 202 201 203 207 212 217 224 232 235 239 241 239 235 235 240 248 252 256 263 270 273 270
230 224 216 211 209 207 206 207 208 209 210 210 210 210 210 211 212 212 212 210 205 207 208 208 211 213 216 218 214 209 207 210 213 210 205 206 208 207 206 205 204 206 210 211 207 203 200 199 200 201 201 201 201 199 198 198 198 192 187 191 195 196 200 204 205 205 206 207 207 209 215 218 223 231 233 233 237 238 238 241 246 251 255 258 263 267 267 266
219 213 207 203 202 202 203 204 207 209 210 210 209 209 211 211 207 205 205 202 200 205 207 208 212 213 215 216 210 203 200 202 205 204 205 207 206 203 200 201 202 202 204 204 201 198 197 197 198 198 198 199 200 198 197 195 191 187 189 192 195 197 201 205 208 210 210 211 211 212 217 219 221 227 229 229 234 238 242 247 252 259 266 268 266 263 262 263
207 203 199 198 198 199 201 202 206 210 211 210 209 208 210 209 205 204 201 198 199 203 203 205 208 209 210 210 203 197 195 196 198 200 202 204 205 203 198 198 200 200 201 198 191 193 197 197 196 197 198 198 196 196 195 191 186 187 191 194 196 198 202 206 209 211 212 212 213 215 218 220 221 226 229 231 235 239 243 250 257 268 279 280 273 265 262 264
197 196 195 196 198 199 200 202 207 212 211 209 207 205 207 207 205 202 198 197 199 198 197 199 200 197 197 196 192 193 193 192 194 196 198 200 202 202 200 201 202 201 198 192 188 193 197 196 196 197 199 198 197 196 195 190 186 189 194 196 198 200 202 206 209 211 212 212 215 218 220 223 224 227 231 235 238 240 245 252 261 272 280 281 273 265 263 264
194 194 194 196 198 199 200 204 211 215 210 206 203 202 205 206 200 192 191 194 193 189 188 190 187 184 187 186 181 186 192 193 193 192 193 194 197 201 201 203 207 206 199 191 190 195 197 196 197 198 199 199 200 201 198 193 191 194 198 200 201 203 205 208 211 213 213 213 217 220 222 225 228 230 234 238 240 243 247 253 264 274 276 274 270 265 263 266
194 194 194 197 199 200 202 209 214 212 207 203 201 202 204 199 188 182 185 189 189 184 180 179 178 179 182 181 177 181 188 192 192 191 191 191 191 196 200 202 206 207 201 196 198 200 199 198 198 197 200 201 203 206 204 198 196 199 203 206 207 209 211 213 215 217 217 217 220 223 225 229 231 234 238 241 242 244 248 255 265 271 270 268 267 264 262 265
194 194 195 198 201 203 208 212 211 205 202 199 198 201 198 188 179 180 183 185 187 185 178 176 178 178 177 175 175 180 187 190 191 189 189 191 190 192 196 201 205 205 200 199 204 206 204 202 200 199 202 203 204 208 207 203 201 203 207 210 211 212 213 214 216 217 218 220 223 226 231 234 236 238 241 244 245 247 251 258 265 268 267 265 262 256 256 259
193 194 197 202 205 206 207 207 202 198 197 195 195 195 187 178 177 178 180 185 187 185 178 177 181 181 176 174 174 178 183 188 194 192 188 188 190 192 195 200 202 199 198 200 203 207 208 206 204 202 204 205 205 208 209 207 203 204 208 211 213 214 215 215 216 218 219 221 225 229 234 237 239 241 245 248 251 254 256 261 266 267 263 259 253 252 255 257
194 196 200 206 206 203 201 199 196 194 193 192 190 184 176 176 178 176 180 187 189 187 180 178 183 184 180 177 177 177 179 183 189 192 191 188 189 191 194 196 194 190 194 199 202 204 205 204 202 200 201 205 207 208 208 206 203 203 207 210 213 216 217 216 216 219 221 225 228 231 235 238 240 243 247 251 255 258 261 264 266 263 257 253 253 258 259 258
196 198 204 207 203 197 196 195 192 191 191 189 182 175 175 176 174 175 184 190 190 189 181 178 183 186 183 182 181 179 180 181 180 181 187 190 189 191 192 192 189 186 189 196 200 201 200 198 198 196 197 202 207 210 209 206 203 203 205 209 214 218 219 219 220 222 225 229 231 234 236 240 242 245 249 252 256 259 263 265 262 258 254 255 258 261 259 258
198 202 205 204 198 193 193 191 190 190 189 182 174 172 174 172 171 176 187 191 190 187 181 179 180 184 186 186 183 182 181 181 177 175 180 186 187 189 191 191 189 187 189 192 196 199 197 195 194 193 194 199 205 210 211 209 205 203 204 206 212 217 220 222 223 226 229 232 234 236 239 242 245 248 251 254 257 260 263 262 259 256 255 256 258 258 256 257
200 203 203 198 192 190 191 190 189 187 181 174 171 171 170 167 169 178 189 192 189 181 176 177 177 180 186 185 182 182 179 175 175 177 178 181 184 187 189 189 189 191 192 191 192 194 195 195 194 193 193 198 203 207 211 213 212 210 210 209 212 216 219 222 224 227 230 234 237 239 241 243 246 249 251 254 257 259 259 258 256 256 257 256 255 254 253 255
201 200 198 192 188 188 189 188 185 180 173 170 171 170 168 166 169 179 191 192 188 175 167 170 174 179 185 184 179 177 172 169 173 177 180 182 185 188 189 187 189 194 197 196 193 192 193 194 194 194 194 198 203 206 209 214 215 217 217 217 218 219 220 222 224 226 230 233 237 240 242 243 244 247 249 251 253 254 254 253 252 254 256 257 256 255 257 260
199 196 192 187 186 188 187 184 179 174 169 169 170 169 169 168 168 175 187 187 186 175 163 165 171 176 182 183 177 173 171 171 174 176 179 183 186 189 190 187 188 196 200 200 196 193 193 193 194 196 197 198 202 204 207 211 213 215 216 217 220 222 223 225 227 229 231 233 236 238 240 240 241 242 243 244 246 247 248 248 249 251 254 257 258 258 259 263
194 190 186 184 186 186 182 178 173 170 168 168 170 171 172 172 170 171 178 182 184 174 164 164 168 174 180 180 176 175 177 177 176 175 177 182 184 186 188 187 189 197 202 201 197 194 193 194 196 198 198 199 201 202 204 208 211 213 215 216 218 223 226 229 231 232 233 233 235 236 237 238 238 238 239 241 243 245 247 248 247 249 253 256 256 255 255 260
189 184 182 184 185 182 177 174 170 169 170 170 171 173 174 175 175 171 172 181 182 170 164 166 169 173 177 177 176 179 182 182 179 176 178 181 182 184 186 188 190 196 202 203 200 196 196 197 199 200 200 200 202 203 204 207 211 214 217 218 219 222 225 226 229 231 231 231 231 232 233 235 236 238 239 241 244 246 246 246 246 248 252 254 252 251 252 256
182 179 180 184 184 178 173 171 170 171 172 171 173 176 176 177 178 172 169 181 183 170 166 170 171 173 175 175 176 180 184 186 182 181 182 182 182 183 186 190 192 194 199 202 201 198 197 199 202 203 203 204 204 205 206 208 212 216 219 221 221 222 224 225 226 228 228 228 229 229 230 231 232 235 238 240 242 244 244 243 244 246 250 250 251 253 254 257
177 176 178 179 179 176 172 171 172 174 174 172 174 179 178 177 179 174 171 181 184 174 170 174 174 175 178 179 179 180 184 187 186 184 186 185 184 185 187 191 193 194 196 199 201 200 198 199 204 205 206 207 208 208 210 211 215 219 222 223 223 224 225 227 228 227 225 226 228 230 231 232 233 237 240 242 243 244 243 241 241 242 246 250 253 256 256 257
173 173 174 173 173 173 172 173 174 176 176 176 177 181 180 178 180 178 175 181 186 180 178 180 180 180 183 184 184 183 185 188 187 185 186 187 187 188 190 192 193 193 195 197 201 202 199 200 204 206 205 208 211 211 212 215 218 222 224 224 224 226 227 228 229 229 226 225 227 230 233 234 237 241 243 243 243 242 241 242 242 243 245 248 251 253 255 256
168 167 169 171 171 171 173 175 176 177 178 178 181 184 183 180 180 180 179 184 190 188 185 187 189 188 188 188 188 187 187 190 190 188 188 189 190 191 192 193 194 194 195 197 199 201 201 202 206 207 206 207 211 213 214 215 218 221 223 224 226 228 228 229 231 231 230 228 228 232 236 237 237 240 241 241 240 240 243 247 248 249 249 249 251 253 254 255
161 164 169 171 171 172 174 177 178 177 177 179 185 189 186 182 182 183 184 186 191 192 191 191 193 193 191 189 190 192 193 194 194 193 193 193 193 194 194 195 196 195 196 199 200 202 203 204 207 209 208 208 211 214 216 217 217 219 223 225 226 227 229 230 232 234 234 233 232 234 236 237 236 236 239 243 244 246 253 258 258 259 259 258 256 254 252 253
155 163 174 175 174 175 175 177 178 178 176 178 187 192 190 187 187 188 189 189 190 192 193 193 191 191 192 191 191 193 197 200 200 199 198 198 198 199 200 199 199 197 197 200 203 204 206 208 211 212 211 211 212 215 217 219 220 221 223 224 223 225 229 233 234 236 235 235 237 238 237 238 237 237 241 246 249 255 264 268 269 268 265 261 256 252 251 252
149 165 182 183 179 178 177 178 179 178 175 176 184 196 197 194 193 194 194 193 191 190 192 192 190 190 193 195 194 195 198 200 202 203 204 204 204 205 205 205 204 203 203 204 205 206 208 212 215 216 216 216 217 219 220 222 224 225 225 224 221 222 229 234 234 236 237 237 239 242 242 242 241 242 245 248 252 258 264 268 269 267 261 255 250 248 250 251
147 169 187 187 181 179 179 181 180 178 174 171 177 195 202 199 199 200 200 199 197 195 195 194 193 194 197 201 202 203 203 204 205 207 208 209 211 212 211 210 210 211 213 213 211 210 210 212 216 219 220 222 222 223 224 223 224 227 229 229 225 223 229 233 231 232 237 239 240 244 245 245 244 244 246 248 252 257 261 264 266 262 257 249 239 234 242 250
Height
5712 5712 5713 5714 5715 5716 5718 5719 5720 5721 5722 5723 5725 5726 5727 5728 5730 5731 5732 5733 5734 5735 5737 5738 5740 5741 5743 5745 5747 5749 5752 5754 5757 5761 5762 5759 5762 5765 5766 5768 5771 5772 5773 5775 5776 5778 5779 5781 5784 5786 5788 5790 5792 5794 5796 5797 5800 5802 5804 5807 5808 5809 5810 5811 5813 5814 5815 5817 5818 5820 5821 5823 5824 5827 5828 5830 5831 5831 5832 5832 5833 5835 5836 5836 5837 5837 5837 5837
5707 5707 5709 5710 5711 5712 5713 5714 5715 5716 5718 5719 5720 5722 5723 5724 5725 5727 5728 5729 5730 5731 5733 5734 5736 5737 5739 5741 5743 5745 5748 5750 5754 5758 5756 5755 5760 5761 5763 5766 5768 5769 5771 5772 5773 5775 5776 5778 5781 5783 5785 5787 5790 5791 5793 5795 5798 5800 5802 5804 5806 5806 5807 5808 5810 5812 5813 5815 5816 5818 5819 5821 5823 5825 5827 5828 5829 5830 5830 5830 5831 5832 5833 5834 5834 5835 5835 5836
5701 5702 5703 5705 5706 5707 5708 5709 5710 5712 5713 5714 5716 5717 5718 5720 5721 5722 5723 5725 5726 5728 5729 5730 5732 5733 5735 5737 5739 5741 5744 5746 5750 5753 5751 5754 5757 5757 5761 5764 5765 5766 5767 5769 5771 5773 5774 5776 5778 5781 5783 5785 5787 5789 5791 5793 5796 5798 5800 5802 5802 5803 5804 5806 5808 5809 5811 5813 5814 5816 5817 5819 5821 5823 5825 5826 5827 5828 5828 5828 5829 5830 5831 5831 5832 5833 5834 5834
5696 5697 5698 5699 5700 5701 5703 5704 5705 5707 5708 5709 5711 5712 5714 5715 5716 5718 5719 5720 5722 5723 5725 5726 5728 5729 5731 5733 5735 5737 5739 5742 5746 5748 5748 5751 5752 5754 5758 5760 5761 5763 5764 5766 5768 5770 5772 5774 5776 5778 5781 5783 5785 5787 5789 5792 5793 5796 5798 5799 5799 5799 5801 5803 5805 5807 5809 5810 5811 5814 5815 5817 5819 5821 5823 5824 5825 5826 5826 5826 5826 5828 5829 5829 5830 5831 5832 5833
5690 5691 5692 5694 5695 5696 5697 5699 5700 5701 5703 5704 5706 5707 5708 5710 5711 5713 5714 5716 5718 5719 5721 5722 5724 5725 5727 5729 5730 5732 5735 5738 5741 5744 5745 5747 5748 5751 5754 5756 5758 5759 5761 5764 5766 5767 5769 5771 5773 5776 5778 5780 5783 5786 5788 5790 5791 5793 5795 5795 5795 5797 5799 5801 5803 5805 5806 5808 5809 5811 5813 5815 5817 5819 5821 5822 5823 5824 5824 5824 5825 5826 5827 5827 5828 5829 5830 5831
5684 5685 5686 5688 5689 5690 5692 5693 5694 5696 5697 5699 5700 5702 5703 5705 5706 5708 5710 5711 5713 5715 5716 5718 5719 5721 5723 5725 5726 5728 5731 5733 5737 5740 5742 5743 5744 5747 5750 5753 5754 5756 5758 5761 5763 5765 5766 5768 5771 5773 5776 5778 5781 5783 5785 5787 5789 5790 5791 5791 5793 5795 5797 5799 5801 5802 5804 5806 5807 5809 5811 5813 5815 5817 5819 5820 5821 5822 5822 5823 5823 5823 5824 5825 5826 5827 5828 5828
5679 5680 5681 5682 5683 5684 5686 5687 5689 5690 5692 5693 5694 5696 5698 5699 5701 5703 5704 5706 5708 5710 5711 5713 5715 5717 5718 5720 5722 5724 5727 5730 5733 5735 5737 5738 5740 5743 5747 5749 5751 5753 5755 5757 5760 5762 5763 5766 5768 5770 5773 5775 5777 5780 5782 5784 5786 5787 5788 5789 5791 5794 5795 5797 5798 5800 5802 5804 5805 5808 5810 5812 5813 5815 5817 5818 5819 5820 5820 5821 5821 5821 5822 5823 5824 5825 5826 5826
5673 5674 5675 5676 5677 5678 5680 5681 5682 5684 5686 5687 5688 5690 5692 5693 5695 5697 5699 5701 5703 5705 5706 5708 5710 5712 5714 5716 5718 5720 5724 5727 5727 5729 5733 5735 5737 5740 5743 5746 5748 5750 5752 5754 5756 5758 5760 5762 5765 5767 5769 5772 5774 5776 5778 5780 5783 5784 5785 5786 5789 5791 5792 5794 5796 5798 5800 5802 5804 5806 5808 5810 5811 5813 5814 5816 5817 5817 5818 5818 5819 5819 5820 5821 5822 5822 5823 5824
5666 5667 5668 5670 5671 5672 5674 5675 5676 5678 5680 5681 5682 5684 5686 5687 5689 5691 5693 5695 5697 5699 5701 5703 5705 5707 5709 5711 5713 5716 5720 5722 5721 5725 5730 5732 5733 5736 5739 5742 5744 5746 5748 5750 5753 5755 5758 5759 5762 5764 5766 5768 5771 5773 5774 5777 5780 5782 5782 5784 5786 5788 5790 5792 5794 5796 5798 5800 5803 5805 5806 5807 5809 5810 5812 5814 5815 5815 5815 5816 5816 5817 5818 5819 5820 5820 5820 5821
5659 5661 5662 5663 5664 5666 5667 5668 5670 5672 5673 5675 5676 5678 5680 5681 5683 5685 5688 5690 5692 5694 5696 5698 5700 5702 5704 5706 5709 5713 5715 5717 5717 5721 5726 5727 5729 5732 5735 5737 5740 5742 5744 5747 5750 5752 5754 5756 5758 5761 5763 5765 5767 5769 5771 5774 5777 5778 5778 5780 5783 5786 5788 5791 5792 5794 5797 5799 5801 5803 5804 5805 5807 5808 5810 5811 5812 5812 5813 5813 5814 5815 5816 5817 5818 5818 5818 5819
5653 5654 5655 5656 5658 5659 5660 5662 5664 5665 5667 5668 5670 5671 5673 5675 5677 5680 5682 5684 5686 5688 5690 5692 5694 5697 5699 5701 5705 5708 5710 5712 5713 5716 5721 5723 5725 5728 5730 5733 5736 5738 5741 5744 5746 5748 5750 5752 5755 5758 5759 5761 5764 5766 5768 5772 5773 5774 5775 5778 5781 5784 5786 5788 5790 5793 5795 5797 5799 5800 5802 5803 5805 5806 5807 5808 5809 5810 5811 5811 5812 5813 5814 5815 5815 5816 5816 5816
5647 5648 5649 5650 5651 5652 5654 5655 5657 5659 5660 5662 5663 5665 5667 5669 5671 5674 5676 5678 5680 5682 5684 5686 5688 5691 5693 5697 5701 5703 5705 5707 5708 5712 5716 5719 5722 5725 5727 5730 5733 5736 5738 5740 5742 5744 5747 5749 5752 5754 5756 5759 5761 5762 5765 5768 5770 5771 5773 5776 5779 5781 5783 5786 5789 5791 5793 5794 5796 5798 5800 5801 5802 5803 5805 5806 5807 5809 5809 5810 5811 5812 5812 5813 5813 5813 5814 5814
5640 5641 5642 5643 5645 5646 5647 5649 5650 5652 5653 5655 5657 5658 5661 5662 5665 5667 5669 5672 5674 5676 5678 5680 5682 5685 5687 5692 5696 5696 5699 5702 5704 5708 5712 5715 5719 5722 5724 5727 5729 5732 5734 5736 5738 5741 5744 5747 5749 5751 5754 5756 5758 5759 5762 5765 5767 5769 5771 5774 5776 5778 5781 5784 5787 5789 5790 5792 5795 5796 5798 5799 5800 5801 5803 5804 5805 5807 5808 5809 5810 5810 5810 5810 5810 5811 5812 5812
5633 5634 5635 5637 5638 5639 5641 5643 5644 5645 5647 5648 5650 5652 5654 5656 5658 5661 5663 5665 5668 5670 5672 5674 5677 5679 5682 5688 5690 5690 5693 5697 5701 5704 5708 5711 5715 5717 5720 5722 5725 5727 5729 5732 5735 5738 5740 5744 5746 5748 5751 5753 5754 5757 5760 5763 5765 5767 5769 5771 5773 5776 5779 5782 5784 5786 5788 5791 5792 5794 5795 5796 5797 5799 5800 5802 5803 5805 5806 5807 5808 5808 5808 5808 5809 5810 5810 5810
5627 5628 5629 5630 5632 5633 5634 5636 5637 5639 5640 5642 5643 5645 5647 5649 5652 5654 5656 5659 5661 5663 5665 5668 5671 5673 5677 5682 5684 5685 5688 5694 5697 5700 5703 5706 5709 5712 5715 5717 5720 5723 5725 5728 5731 5734 5737 5740 5743 5746 5748 5750 5752 5755 5758 5761 5763 5765 5766 5768 5771 5774 5777 5779 5781 5784 5786 5788 5790 5791 5793 5793 5794 5796 5798 5800 5801 5803 5804 5805 5806 5806 5806 5807 5807 5808 5808 5809
5621 5622 5623 5624 5625 5626 5628 5629 5631 5632 5633 5635 5637 5638 5640 5642 5645 5647 5650 5652 5654 5657 5659 5662 5665 5668 5672 5676 5679 5680 5684 5690 5692 5694 5697 5700 5703 5707 5710 5713 5715 5718 5721 5724 5727 5730 5733 5737 5740 5743 5745 5747 5750 5752 5755 5758 5760 5762 5763 5766 5769 5771 5774 5777 5779 5781 5782 5785 5787 5789 5791 5790 5791 5794 5797 5798 5799 5801 5802 5803 5803 5804 5804 5805 5805 5806 5807 5806
5615 5616 5617 5618 5619 5620 5621 5622 5624 5625 5627 5628 5629 5631 5633 5635 5638 5640 5643 5645 5648 5650 5653 5656 5659 5662 5667 5671 5674 5676 5679 5684 5686 5688 5692 5695 5698 5702 5705 5708 5711 5714 5717 5720 5724 5727 5730 5733 5736 5739 5742 5745 5747 5750 5752 5755 5757 5759 5761 5764 5766 5769 5772 5774 5775 5777 5779 5782 5784 5786 5788 5788 5790 5793 5795 5796 5797 5798 5800 5800 5801 5801 5802 5802 5803 5804 5805 5804
5609 5610 5610 5611 5612 5613 5615 5616 5617 5618 5620 5621 5622 5624 5626 5629 5631 5633 5636 5639 5641 5644 5647 5650 5654 5658 5662 5667 5669 5670 5674 5678 5681 5683 5687 5690 5693 5696 5700 5703 5707 5710 5713 5717 5720 5723 5726 5730 5733 5736 5740 5743 5745 5747 5750 5753 5755 5757 5760 5762 5764 5767 5770 5771 5772 5774 5777 5779 5781 5784 5785 5786 5789 5791 5792 5793 5795 5796 5797 5798 5799 5799 5800 5801 5801 5802 5802 5802
5602 5603 5604 5605 5606 5607 5608 5609 5610 5611 5613 5614 5616 5618 5620 5622 5624 5627 5630 5632 5635 5639 5642 5646 5650 5654 5658 5661 5663 5665 5670 5673 5676 5678 5682 5686 5689 5693 5696 5700 5703 5707 5710 5714 5717 5719 5722 5726 5730 5734 5738 5741 5743 5745 5748 5751 5753 5755 5758 5760 5762 5765 5767 5768 5770 5772 5775 5777 5779 5783 5785 5786 5787 5788 5789 5791 5792 5794 5795 5796 5797 5798 5798 5799 5799 5800 5800 5801
5596 5597 5597 5598 5599 5600 5601 5603 5604 5605 5606 5608 5610 5612 5614 5616 5618 5621 5623 5627 5631 5635 5638 5642 5646 5649 5653 5655 5658 5661 5666 5669 5671 5674 5678 5682 5685 5689 5693 5696 5700 5704 5707 5711 5714 5716 5719 5723 5728 5733 5736 5738 5741 5743 5745 5748 5750 5752 5755 5757 5759 5762 5764 5766 5768 5770 5772 5775 5778 5782 5783 5784 5785 5786 5787 5789 5790 5792 5792 5793 5794 5796 5796 5796 5797 5797 5798 5799
5590 5590 5591 5592 5593 5594 5595 5596 5598 5599 5601 5602 5604 5606 5608 5611 5613 5616 5620 5625 5628 5631 5635 5638 5642 5646 5649 5651 5655 5658 5661 5664 5667 5671 5674 5678 5681 5685 5688 5693 5697 5701 5704 5707 5710 5713 5716 5721 5726 5730 5732 5734 5737 5740 5742 5745 5747 5750 5752 5754 5757 5760 5762 5763 5765 5767 5770 5774 5777 5779 5781 5782 5783 5784 5785 5787 5787 5788 5790 5791 5793 5793 5794 5794 5795 5795 5796 5796
5584 5584 5585 5586 5587 5588 5590 5591 5592 5594 5596 5597 5599 5601 5604 5607 5610 5614 5618 5622 5625 5628 5632 5635 5639 5643 5646 5648 5651 5655 5658 5662 5664 5667 5671 5675 5678 5681 5685 5689 5693 5697 5701 5704 5707 5710 5714 5719 5723 5725 5728 5731 5734 5736 5739 5742 5744 5747 5749 5751 5755 5757 5759 5761 5763 5765 5769 5773 5775 5777 5778 5780 5781 5782 5783 5783 5784 5786 5788 5789 5790 5791 5791 5792 5793 5793 5794 5794
5578 5579 5579 5580 5582 5583 5585 5586 5588 5590 5591 5593 5595 5597 5601 5605 5608 5612 5615 5618 5621 5624 5628 5632 5636 5639 5642 5645 5648 5651 5655 5658 5660 5663 5667 5671 5675 5678 5682 5686 5690 5693 5697 5701 5704 5708 5712 5715 5718 5721 5724 5728 5731 5734 5737 5740 5742 5744 5746 5749 5753 5755 5757 5759 5760 5763 5768 5771 5773 5774 5776 5777 5778 5779 5780 5781 5782 5784 5786 5787 5788 5789 5789 5790 5790 5791 5791 5791
5572 5573 5574 5575 5577 5579 5580 5582 5584 5586 5587 5589 5592 5595 5599 5603 5607 5609 5612 5615 5618 5621 5625 5629 5632 5635 5637 5640 5643 5647 5651 5653 5656 5660 5663 5668 5671 5675 5679 5683 5686 5690 5694 5698 5701 5704 5708 5711 5714 5717 5721 5725 5728 5731 5735 5737 5739 5741 5744 5747 5751 5753 5755 5756 5758 5762 5767 5769 5771 5772 5773 5774 5775 5777 5778 5779 5781 5783 5784 5785 5786 5787 5787 5788 5788 5789 5789 5789
5567 5568 5569 5571 5573 5575 5576 5579 5581 5583 5584 5587 5590 5594 5598 5602 5604 5607 5609 5612 5615 5618 5622 5625 5629 5632 5633 5636 5640 5645 5648 5651 5654 5657 5661 5665 5668 5672 5676 5679 5683 5687 5691 5694 5697 5700 5703 5707 5711 5715 5718 5722 5725 5729 5732 5734 5737 5739 5742 5746 5749 5751 5752 5753 5756 5761 5765 5767 5769 5769 5770 5770 5772 5774 5776 5778 5780 5782 5783 5783 5784 5785 5786 5786 5787 5788 5788 5788
5562 5564 5565 5567 5569 5571 5574 5576 5578 5580 5582 5586 5589 5593 5597 5600 5602 5604 5606 5609 5612 5616 5619 5622 5627 5629 5630 5635 5641 5644 5646 5650 5653 5655 5658 5662 5665 5669 5672 5676 5680 5684 5687 5690 5693 5696 5700 5704 5709 5712 5715 5718 5721 5725 5729 5732 5734 5737 5741 5744 5746 5748 5750 5752 5755 5759 5763 5765 5767 5767 5768 5768 5771 5772 5774 5776 5779 5780 5781 5781 5782 5783 5784 5784 5785 5785 5786 5786
5558 5560 5562 5564 5566 5568 5571 5574 5576 5578 5582 5585 5588 5591 5594 5597 5599 5601 5603 5606 5610 5614 5617 5621 5624 5626 5629 5635 5638 5641 5645 5647 5649 5653 5656 5659 5662 5665 5668 5672 5677 5681 5684 5687 5689 5693 5697 5701 5705 5709 5712 5715 5718 5722 5726 5729 5732 5735 5740 5742 5744 5747 5749 5751 5754 5757 5760 5763 5765 5766 5766 5767 5770 5771 5772 5775 5777 5778 5779 5779 5780 5781 5782 5782 5783 5783 5783 5784
5555 5556 5558 5561 5563 5566 5569 5571 5574 5577 5580 5583 5586 5589 5592 5594 5596 5598 5600 5604 5609 5612 5615 5619 5622 5624 5627 5631 5635 5639 5643 5645 5647 5650 5653 5656 5659 5662 5666 5670 5674 5679 5683 5685 5688 5691 5695 5699 5702 5706 5709 5713 5716 5720 5724 5727 5731 5735 5738 5740 5742 5745 5747 5749 5752 5755 5758 5760 5762 5763 5764 5766 5767 5769 5772 5774 5774 5775 5776 5777 5778 5779 5780 5780 5780 5781 5781 5782
5552 5554 5556 5558 5561 5564 5567 5570 5573 5576 5578 5581 5584 5586 5589 5590 5592 5595 5598 5603 5608 5610 5613 5617 5619 5622 5625 5628 5632 5636 5639 5641 5644 5648 5651 5653 5656 5660 5665 5669 5672 5676 5679 5683 5687 5690 5693 5696 5699 5703 5707 5711 5715 5718 5722 5726 5730 5733 5735 5737 5740 5742 5744 5747 5750 5752 5755 5757 5759 5761 5762 5764 5765 5768 5771 5773 5772 5772 5773 5775 5776 5777 5778 5779 5779 5780 5780 5780
5549 5551 5554 5557 5560 5563 5565 5568 5571 5574 5576 5579 5581 5583 5585 5587 5590 5593 5597 5602 5606 5608 5611 5615 5618 5620 5623 5626 5631 5634 5636 5638 5641 5645 5649 5652 5655 5658 5662 5666 5669 5672 5675 5679 5684 5688 5690 5693 5696 5700 5704 5709 5713 5716 5720 5725 5729 5731 5733 5735 5737 5740 5743 5745 5747 5749 5751 5753 5756 5758 5760 5762 5764 5766 5769 5771 5771 5771 5772 5774 5775 5775 5776 5777 5778 5778 5778 5778
5547 5550 5552 5555 5558 5561 5564 5567 5569 5571 5574 5576 5578 5581 5584 5586 5589 5592 5596 5601 5604 5606 5610 5612 5615 5618 5622 5626 5629 5631 5633 5635 5638 5642 5645 5649 5653 5656 5659 5663 5665 5668 5672 5677 5682 5685 5687 5690 5694 5698 5702 5706 5709 5713 5717 5721 5725 5727 5729 5732 5734 5737 5739 5742 5744 5745 5748 5750 5753 5755 5757 5760 5763 5764 5766 5769 5769 5770 5771 5772 5773 5774 5774 5775 5775 5776 5776 5776
5546 5548 5551 5554 5557 5559 5562 5565 5567 5569 5572 5574 5576 5580 5583 5585 5587 5591 5597 5600 5603 5605 5607 5609 5613 5617 5621 5624 5627 5630 5632 5633 5636 5640 5643 5647 5651 5654 5658 5662 5664 5666 5671 5676 5680 5682 5685 5689 5692 5696 5700 5704 5707 5710 5713 5717 5721 5723 5725 5727 5730 5733 5736 5738 5740 5742 5745 5748 5750 5753 5755 5758 5760 5761 5764 5766 5767 5768 5770 5770 5771 5772 5772 5772 5773 5773 5773 5774
5544 5547 5550 5552 5555 5558 5560 5563 5565 5567 5570 5572 5575 5579 5581 5583 5587 5592 5597 5599 5601 5603 5605 5608 5612 5616 5619 5622 5625 5628 5631 5633 5636 5639 5642 5646 5650 5653 5657 5660 5664 5668 5673 5677 5679 5680 5683 5687 5691 5695 5699 5702 5706 5708 5711 5715 5717 5719 5721 5724 5728 5731 5733 5735 5737 5739 5743 5746 5748 5751 5753 5755 5757 5759 5761 5763 5765 5766 5768 5769 5769 5770 5770 5770 5771 5771 5771 5772
5543 5546 5548 5551 5553 5556 5559 5561 5563 5565 5568 5570 5574 5577 5579 5583 5588 5592 5595 5597 5600 5602 5603 5606 5610 5614 5617 5620 5623 5626 5629 5633 5636 5639 5642 5644 5647 5651 5655 5658 5662 5667 5673 5677 5678 5680 5683 5686 5690 5695 5698 5701 5705 5707 5711 5714 5717 5719 5722 5725 5729 5731 5732 5734 5736 5739 5742 5745 5747 5749 5750 5751 5754 5756 5758 5761 5763 5764 5766 5767 5767 5768 5768 5769 5769 5769 5770 5770
5542 5544 5547 5549 5551 5554 5557 5559 5561 5563 5566 5569 5572 5575 5578 5584 5588 5590 5593 5595 5598 5600 5602 5605 5608 5611 5614 5618 5622 5625 5629 5632 5635 5638 5641 5644 5647 5650 5653 5657 5661 5666 5671 5675 5677 5680 5683 5686 5690 5694 5697 5700 5704 5706 5710 5713 5716 5719 5722 5725 5727 5729 5731 5733 5736 5739 5741 5743 5745 5746 5746 5748 5751 5753 5755 5758 5760 5762 5763 5764 5765 5766 5766 5767 5767 5768 5768 5768
5540 5543 5545 5547 5550 5553 5555 5557 5559 5561 5564 5567 5570 5574 5579 5584 5586 5588 5592 5594 5596 5599 5602 5604 5607 5610 5613 5616 5619 5623 5628 5632 5635 5637 5640 5644 5647 5650 5653 5657 5661 5667 5670 5672 5675 5678 5682 5686 5689 5693 5696 5699 5702 5704 5708 5711 5715 5718 5720 5722 5725 5727 5729 5732 5734 5736 5738 5740 5741 5742 5744 5745 5748 5751 5752 5755 5757 5759 5760 5761 5762 5763 5764 5765 5765 5766 5766 5766
5539 5541 5543 5546 5548 5551 5553 5555 5557 5560 5563 5566 5569 5575 5580 5582 5585 5588 5591 5593 5595 5598 5600 5603 5607 5610 5612 5615 5618 5622 5626 5630 5633 5637 5640 5643 5646 5649 5652 5656 5661 5666 5669 5671 5674 5677 5681 5685 5688 5692 5695 5697 5700 5702 5706 5710 5714 5717 5719 5721 5723 5725 5726 5729 5731 5733 5735 5736 5738 5740 5741 5743 5745 5748 5750 5752 5754 5756 5757 5758 5759 5760 5762 5762 5763 5763 5763 5764
5537 5539 5541 5544 5547 5549 5551 5553 5556 5559 5562 5565 5570 5575 5578 5581 5585 5588 5590 5592 5594 5597 5599 5602 5606 5609 5613 5616 5619 5622 5625 5628 5631 5636 5640 5642 5645 5648 5651 5655 5660 5663 5666 5669 5672 5676 5680 5683 5686 5690 5693 5695 5698 5701 5704 5708 5712 5715 5718 5720 5721 5722 5724 5726 5728 5730 5732 5733 5735 5737 5739 5741 5743 5745 5747 5749 5751 5752 5754 5755 5756 5758 5759 5760 5760 5761 5761 5761
5535 5537 5539 5542 5545 5547 5549 5552 5555 5558 5562 5567 5571 5575 5578 5581 5585 5588 5590 5592 5594 5597 5600 5602 5605 5609 5613 5616 5620 5623 5625 5628 5632 5635 5638 5641 5645 5648 5651 5654 5658 5661 5664 5667 5670 5674 5678 5681 5684 5687 5690 5693 5696 5699 5702 5705 5708 5711 5714 5716 5717 5719 5722 5724 5726 5728 5730 5731 5733 5735 5737 5739 5741 5743 5745 5747 5748 5750 5751 5753 5754 5756 5757 5757 5757 5758 5758 5759
5533 5536 5538 5541 5544 5546 5548 5551 5554 5559 5564 5568 5571 5574 5578 5582 5586 5588 5590 5592 5595 5598 5601 5603 5605 5609 5612 5616 5620 5623 5625 5629 5632 5634 5637 5640 5644 5646 5650 5654 5657 5660 5662 5665 5668 5672 5676 5679 5682 5685 5689 5692 5694 5697 5700 5703 5706 5709 5711 5713 5715 5718 5720 5723 5725 5727 5728 5729 5731 5732 5734 5737 5739 5741 5742 5744 5746 5747 5749 5751 5752 5753 5754 5754 5755 5755 5756 5757
5532 5534 5536 5539 5542 5545 5547 5551 5555 5560 5565 5568 5571 5574 5578 5581 5585 5588 5589 5591 5595 5598 5601 5603 5605 5609 5612 5616 5619 5622 5625 5628 5631 5634 5637 5640 5642 5645 5649 5653 5656 5659 5661 5663 5667 5670 5674 5677 5681 5684 5687 5689 5692 5696 5699 5702 5705 5708 5710 5713 5715 5717 5719 5721 5722 5724 5725 5727 5729 5730 5732 5735 5737 5739 5740 5742 5744 5745 5747 5748 5750 5751 5751 5751 5752 5753 5754 5754
5530 5533 5536 5539 5541 5544 5547 5552 5556 5561 5564 5568 5571 5574 5577 5580 5583 5587 5589 5591 5595 5598 5600 5603 5606 5609 5612 5615 5618 5622 5624 5627 5629 5633 5636 5639 5642 5645 5648 5652 5655 5657 5659 5662 5666 5669 5672 5675 5678 5681 5685 5687 5690 5694 5697 5700 5702 5705 5707 5710 5712 5714 5716 5718 5719 5721 5723 5725 5726 5728 5730 5732 5734 5736 5738 5740 5741 5743 5745 5746 5748 5748 5749 5749 5750 5750 5751 5751
5529 5532 5535 5538 5541 5544 5548 5553 5557 5561 5564 5567 5570 5574 5577 5580 5583 5586 5589 5591 5595 5598 5600 5603 5606 5609 5612 5615 5619 5621 5624 5627 5630 5633 5636 5638 5641 5644 5648 5651 5654 5656 5658 5661 5664 5668 5671 5673 5676 5679 5682 5685 5688 5691 5694 5697 5699 5701 5703 5706 5708 5710 5713 5715 5717 5718 5720 5722 5723 5725 5727 5729 5731 5734 5736 5737 5739 5741 5742 5744 5745 5746 5746 5747 5748 5748 5749 5749
5528 5531 5535 5538 5541 5545 5550 5554 5558 5561 5564 5567 5570 5574 5577 5579 5582 5586 5589 5592 5596 5598 5601 5603 5606 5609 5612 5616 5619 5622 5624 5627 5630 5632 5635 5638 5641 5643 5646 5649 5652 5655 5658 5660 5663 5666 5669 5671 5673 5676 5679 5682 5685 5688 5691 5694 5696 5698 5701 5703 5706 5708 5710 5712 5714 5716 5717 5719 5721 5722 5724 5727 5729 5731 5733 5735 5737 5738 5740 5742 5743 5743 5744 5745 5746 5746 5747 5747
5528 5531 5535 5538 5542 5546 5550 5554 5558 5561 5564 5567 5571 5574 5577 5580 5583 5586 5590 5593 5596 5599 5601 5604 5607 5610 5613 5616 5619 5622 5625 5628 5631 5633 5635 5637 5640 5643 5645 5648 5651 5654 5657 5660 5663 5666 5668 5670 5672 5674 5676 5680 5683 5685 5688 5691 5693 5696 5699 5702 5704 5705 5707 5709 5711 5713 5715 5717 5719 5720 5722 5724 5726 5728 5730 5733 5734 5736 5738 5739 5740 5741 5742 5742 5743 5743 5744 5745
5528 5531 5535 5539 5543 5547 5551 5554 5558 5561 5564 5568 5571 5574 5577 5580 5583 5587 5590 5593 5596 5599 5602 5605 5608 5611 5614 5617 5620 5622 5625 5628 5631 5634 5635 5637 5640 5642 5645 5648 5651 5654 5656 5659 5661 5664 5667 5670 5671 5673 5676 5679 5682 5685 5687 5690 5692 5695 5697 5699 5701 5703 5705 5707 5708 5710 5713 5715 5717 5718 5720 5722 5725 5726 5728 5730 5732 5733 5735 5736 5737 5738 5739 5740 5740 5741 5741 5742
5528 5532 5536 5540 5544 5548 5552 5555 5558 5562 5565 5569 5572 5575 5578 5581 5584 5588 5591 5594 5596 5599 5603 5605 5608 5611 5614 5617 5619 5622 5625 5628 5631 5634 5636 5638 5640 5642 5644 5647 5650 5653 5656 5658 5661 5663 5666 5668 5670 5672 5675 5678 5681 5684 5686 5689 5691 5693 5695 5697 5699 5701 5703 5704 5706 5709 5711 5713 5714 5716 5718 5721 5723 5725 5726 5728 5729 5731 5733 5733 5734 5736 5737 5738 5738 5738 5739 5740
5529 5533 5537 5540 5544 5548 5552 5555 5558 5562 5566 5570 5573 5575 5578 5581 5585 5588 5592 5595 5597 5600 5603 5606 5609 5611 5614 5617 5619 5622 5624 5627 5630 5633 5635 5637 5639 5641 5644 5646 5649 5652 5655 5657 5660 5662 5665 5667 5669 5671 5675 5677 5680 5682 5684 5686 5689 5691 5693 5695 5697 5699 5701 5703 5705 5707 5708 5710 5712 5714 5716 5719 5721 5723 5724 5725 5727 5729 5730 5731 5732 5733 5734 5735 5736 5736 5737 5737
5531 5534 5538 5541 5544 5548 5551 5555 5558 5562 5566 5570 5573 5575 5577 5581 5585 5588 5591 5594 5598 5600 5603 5606 5608 5611 5614 5617 5620 5622 5625 5627 5630 5632 5635 5637 5640 5642 5644 5646 5649 5652 5654 5657 5659 5662 5664 5666 5668 5670 5673 5676 5678 5680 5682 5685 5687 5689 5691 5693 5695 5697 5699 5701 5703 5705 5706 5708 5710 5712 5714 5716 5719 5720 5721 5723 5725 5727 5728 5729 5730 5731 5732 5733 5734 5734 5735 5735
5532 5536 5539 5542 5545 5548 5551 5554 5558 5561 5566 5570 5573 5575 5578 5581 5585 5588 5592 5595 5598 5601 5604 5606 5608 5611 5614 5617 5619 5622 5624 5627 5630 5632 5635 5637 5639 5642 5644 5646 5648 5651 5654 5656 5659 5661 5663 5666 5667 5669 5672 5674 5676 5678 5681 5683 5685 5687 5689 5691 5693 5696 5697 5699 5701 5703 5704 5706 5708 5710 5712 5714 5716 5718 5719 5721 5722 5724 5726 5727 5728 5728 5729 5731 5732 5732 5732 5732
5533 5537 5540 5542 5545 5548 5551 5554 5558 5562 5566 5571 5575 5577 5579 5583 5586 5589 5592 5596 5598 5601 5604 5606 5608 5611 5614 5616 5619 5621 5624 5626 5629 5631 5634 5636 5639 5641 5643 5645 5648 5650 5653 5655 5657 5660 5662 5664 5666 5668 5671 5672 5674 5677 5679 5681 5683 5685 5687 5689 5691 5694 5696 5697 5699 5700 5702 5704 5705 5707 5709 5711 5714 5716 5717 5719 5720 5722 5723 5724 5725 5726 5727 5729 5729 5730 5730 5730
5534 5537 5539 5542 5545 5548 5551 5555 5559 5563 5567 5572 5576 5579 5580 5584 5587 5590 5593 5596 5599 5601 5603 5606 5608 5611 5613 5615 5618 5621 5623 5626 5628 5631 5633 5636 5638 5640 5642 5644 5647 5649 5651 5653 5656 5658 5660 5662 5664 5667 5669 5671 5672 5675 5677 5679 5681 5682 5684 5686 5688 5691 5693 5695 5696 5698 5700 5702 5704 5705 5707 5709 5711 5712 5714 5716 5717 5719 5720 5721 5723 5724 5725 5726 5727 5727 5728 5728